QPF
0.01 0.02 0.02 0.02 0.01 0.01 0.01 0.01 0.01 0.01 0.01 0.01 0.00 0.01 0.01 0.01 0.01 0.02 0.03 0.03 0.03 0.03 0.02 0.01 0.01 0.01 0.01 0.02 0.02 0.02 0.03 0.04 0.06 0.04 0.03 0.03 0.03 0.03
0.02 0.02 0.02 0.02 0.01 0.01 0.01 0.01 0.01 0.01 0.01 0.01 0.01 0.01 0.02 0.01 0.01 0.02 0.03 0.03 0.03 0.03 0.02 0.01 0.01 0.01 0.01 0.01 0.01 0.01 0.01 0.02 0.03 0.02 0.02 0.03 0.04 0.04
0.02 0.02 0.03 0.02 0.01 0.01 0.01 0.01 0.01 0.01 0.01 0.01 0.01 0.02 0.02 0.01 0.01 0.02 0.03 0.03 0.03 0.02 0.02 0.01 0.01 0.01 0.01 0.01 0.01 0.01 0.01 0.02 0.02 0.02 0.01 0.02 0.03 0.03
0.01 0.01 0.01 0.02 0.02 0.02 0.01 0.02 0.01 0.01 0.01 0.01 0.01 0.02 0.02 0.01 0.01 0.02 0.02 0.02 0.02 0.01 0.01 0.01 0.01 0.01 0.02 0.01 0.02 0.02 0.01 0.01 0.01 0.01 0.01 0.01 0.02 0.02
0.01 0.01 0.01 0.01 0.02 0.03 0.04 0.03 0.03 0.02 0.01 0.02 0.02 0.02 0.02 0.02 0.01 0.01 0.01 0.02 0.02 0.02 0.01 0.02 0.02 0.02 0.03 0.02 0.02 0.02 0.01 0.01 0.01 0.01 0.01 0.01 0.01 0.01
0.01 0.01 0.01 0.01 0.01 0.02 0.03 0.04 0.04 0.03 0.03 0.03 0.04 0.03 0.02 0.03 0.03 0.02 0.01 0.01 0.02 0.02 0.02 0.02 0.02 0.02 0.03 0.02 0.01 0.01 0.01 0.01 0.00 0.01 0.01 0.01 0.01 0.01
0.01 0.01 0.01 0.01 0.02 0.02 0.02 0.03 0.04 0.05 0.05 0.05 0.05 0.04 0.02 0.02 0.03 0.03 0.02 0.02 0.01 0.01 0.02 0.02 0.02 0.02 0.02 0.02 0.01 0.01 0.02 0.01 0.01 0.01 0.01 0.01 0.01 0.01
0.02 0.01 0.01 0.02 0.02 0.02 0.02 0.03 0.03 0.04 0.05 0.06 0.06 0.05 0.03 0.02 0.03 0.03 0.02 0.02 0.01 0.01 0.01 0.01 0.01 0.02 0.03 0.03 0.02 0.01 0.02 0.02 0.02 0.01 0.01 0.01 0.01 0.00
0.02 0.02 0.02 0.02 0.02 0.02 0.02 0.03 0.02 0.03 0.03 0.04 0.05 0.05 0.05 0.05 0.04 0.04 0.03 0.02 0.01 0.01 0.01 0.01 0.01 0.01 0.02 0.03 0.03 0.01 0.01 0.01 0.02 0.01 0.01 0.01 0.00 0.00
0.03 0.03 0.03 0.02 0.02 0.02 0.02 0.03 0.03 0.03 0.04 0.03 0.04 0.04 0.05 0.06 0.05 0.03 0.03 0.02 0.02 0.01 0.02 0.03 0.02 0.01 0.02 0.03 0.03 0.02 0.01 0.01 0.01 0.01 0.01 0.01 0.01 0.00
0.04 0.03 0.03 0.02 0.02 0.02 0.02 0.03 0.03 0.04 0.04 0.04 0.04 0.04 0.04 0.04 0.05 0.05 0.03 0.02 0.02 0.02 0.02 0.03 0.03 0.04 0.03 0.03 0.03 0.03 0.03 0.02 0.02 0.01 0.01 0.01 0.01 0.01
0.04 0.05 0.04 0.03 0.03 0.02 0.02 0.03 0.02 0.02 0.03 0.04 0.04 0.04 0.03 0.03 0.03 0.04 0.04 0.03 0.02 0.02 0.02 0.02 0.03 0.05 0.06 0.04 0.03 0.03 0.03 0.03 0.03 0.02 0.01 0.01 0.01 0.01
0.06 0.05 0.04 0.03 0.03 0.02 0.02 0.02 0.03 0.02 0.03 0.03 0.03 0.03 0.03 0.04 0.03 0.02 0.03 0.03 0.02 0.02 0.02 0.03 0.03 0.04 0.04 0.03 0.02 0.02 0.01 0.02 0.02 0.02 0.02 0.02 0.02 0.02
0.07 0.06 0.05 0.05 0.04 0.03 0.03 0.03 0.04 0.04 0.04 0.04 0.04 0.02 0.03 0.04 0.03 0.02 0.02 0.02 0.02 0.02 0.02 0.02 0.04 0.04 0.04 0.03 0.02 0.02 0.02 0.02 0.02 0.02 0.02 0.02 0.02 0.02
0.08 0.07 0.08 0.07 0.06 0.04 0.04 0.05 0.05 0.04 0.04 0.05 0.05 0.03 0.02 0.04 0.05 0.03 0.03 0.03 0.02 0.02 0.02 0.03 0.03 0.04 0.04 0.04 0.03 0.02 0.03 0.03 0.02 0.02 0.03 0.03 0.03 0.03
0.09 0.09 0.08 0.08 0.09 0.07 0.07 0.06 0.05 0.04 0.03 0.03 0.04 0.04 0.04 0.05 0.06 0.06 0.05 0.05 0.04 0.03 0.04 0.04 0.04 0.04 0.05 0.05 0.05 0.04 0.03 0.04 0.03 0.02 0.03 0.04 0.05 0.05
0.06 0.08 0.10 0.11 0.12 0.11 0.09 0.07 0.06 0.05 0.03 0.03 0.03 0.05 0.06 0.06 0.05 0.04 0.04 0.04 0.04 0.04 0.03 0.03 0.03 0.03 0.03 0.03 0.04 0.05 0.04 0.04 0.04 0.03 0.03 0.03 0.05 0.05
0.05 0.06 0.07 0.09 0.09 0.10 0.10 0.08 0.06 0.04 0.02 0.02 0.03 0.04 0.05 0.06 0.05 0.04 0.04 0.04 0.05 0.05 0.05 0.05 0.05 0.06 0.05 0.05 0.04 0.04 0.04 0.04 0.03 0.02 0.02 0.02 0.03 0.04
0.06 0.05 0.04 0.04 0.05 0.05 0.07 0.07 0.06 0.04 0.03 0.02 0.02 0.03 0.03 0.04 0.05 0.05 0.04 0.03 0.03 0.03 0.04 0.04 0.04 0.04 0.04 0.05 0.05 0.05 0.05 0.04 0.03 0.02 0.02 0.01 0.02 0.04
0.09 0.07 0.05 0.04 0.05 0.05 0.06 0.05 0.05 0.04 0.04 0.03 0.03 0.03 0.03 0.03 0.04 0.05 0.05 0.04 0.03 0.03 0.03 0.03 0.03 0.03 0.03 0.03 0.04 0.04 0.04 0.04 0.03 0.03 0.02 0.02 0.01 0.02
0.12 0.09 0.07 0.05 0.05 0.05 0.05 0.04 0.04 0.04 0.03 0.03 0.03 0.03 0.03 0.03 0.04 0.04 0.05 0.06 0.05 0.04 0.03 0.02 0.01 0.01 0.01 0.01 0.02 0.03 0.04 0.05 0.04 0.03 0.03 0.03 0.02 0.01
0.11 0.11 0.08 0.06 0.05 0.05 0.04 0.03 0.02 0.03 0.03 0.03 0.03 0.03 0.02 0.03 0.03 0.04 0.05 0.05 0.06 0.05 0.04 0.02 0.02 0.02 0.01 0.01 0.02 0.03 0.05 0.06 0.06 0.06 0.05 0.05 0.04 0.03
0.10 0.11 0.10 0.07 0.05 0.04 0.03 0.03 0.03 0.02 0.03 0.03 0.02 0.02 0.02 0.02 0.02 0.03 0.04 0.04 0.05 0.06 0.06 0.05 0.04 0.03 0.02 0.02 0.01 0.02 0.03 0.04 0.05 0.05 0.05 0.05 0.05 0.04
MSLP
1018.05 1017.94 1017.79 1017.58 1017.29 1016.91 1016.44 1015.91 1015.36 1014.82 1014.33 1013.91 1013.58 1013.31 1013.10 1012.89 1012.67 1012.41 1012.10 1011.74 1011.36 1010.99 1010.65 1010.34 1010.08 1009.85 1009.63 1009.40 1009.13 1008.82 1008.48 1008.12 1007.79 1007.53 1007.35 1007.29 1007.34 1007.49
1018.35 1018.27 1018.15 1017.96 1017.69 1017.33 1016.87 1016.34 1015.77 1015.20 1014.67 1014.19 1013.78 1013.43 1013.12 1012.82 1012.50 1012.15 1011.76 1011.34 1010.92 1010.51 1010.15 1009.85 1009.60 1009.40 1009.21 1009.01 1008.78 1008.50 1008.19 1007.87 1007.55 1007.30 1007.13 1007.07 1007.12 1007.26
1018.55 1018.48 1018.38 1018.23 1017.99 1017.65 1017.22 1016.70 1016.15 1015.57 1015.01 1014.50 1014.03 1013.61 1013.21 1012.82 1012.40 1011.96 1011.48 1010.98 1010.49 1010.03 1009.62 1009.29 1009.02 1008.81 1008.64 1008.47 1008.27 1008.04 1007.78 1007.50 1007.23 1007.02 1006.88 1006.84 1006.90 1007.05
1018.69 1018.62 1018.53 1018.39 1018.18 1017.87 1017.47 1016.99 1016.45 1015.89 1015.33 1014.79 1014.28 1013.80 1013.34 1012.87 1012.38 1011.85 1011.28 1010.70 1010.13 1009.59 1009.11 1008.72 1008.41 1008.17 1007.98 1007.81 1007.65 1007.46 1007.26 1007.05 1006.85 1006.69 1006.60 1006.60 1006.69 1006.85
1018.80 1018.71 1018.62 1018.49 1018.29 1018.01 1017.64 1017.19 1016.67 1016.12 1015.57 1015.02 1014.50 1013.99 1013.48 1012.97 1012.42 1011.82 1011.19 1010.54 1009.88 1009.26 1008.70 1008.21 1007.83 1007.52 1007.29 1007.12 1006.96 1006.82 1006.67 1006.54 1006.42 1006.34 1006.32 1006.37 1006.48 1006.65
1018.91 1018.80 1018.69 1018.55 1018.36 1018.09 1017.74 1017.31 1016.81 1016.28 1015.73 1015.19 1014.66 1014.14 1013.63 1013.09 1012.52 1011.90 1011.22 1010.51 1009.79 1009.08 1008.42 1007.84 1007.35 1006.97 1006.67 1006.45 1006.29 1006.17 1006.09 1006.02 1005.99 1005.99 1006.04 1006.14 1006.28 1006.46
1019.04 1018.90 1018.77 1018.63 1018.43 1018.16 1017.81 1017.39 1016.90 1016.37 1015.83 1015.29 1014.77 1014.27 1013.76 1013.24 1012.68 1012.06 1011.37 1010.63 1009.86 1009.08 1008.33 1007.64 1007.04 1006.55 1006.17 1005.89 1005.71 1005.60 1005.54 1005.54 1005.57 1005.65 1005.76 1005.90 1006.07 1006.24
1019.20 1019.04 1018.90 1018.74 1018.53 1018.26 1017.90 1017.46 1016.97 1016.43 1015.89 1015.36 1014.85 1014.36 1013.89 1013.40 1012.87 1012.28 1011.62 1010.88 1010.08 1009.24 1008.42 1007.63 1006.93 1006.32 1005.84 1005.49 1005.25 1005.12 1005.08 1005.11 1005.19 1005.32 1005.48 1005.65 1005.82 1005.99
1019.39 1019.23 1019.08 1018.91 1018.69 1018.40 1018.02 1017.57 1017.05 1016.50 1015.95 1015.41 1014.91 1014.45 1014.01 1013.57 1013.09 1012.55 1011.93 1011.21 1010.41 1009.55 1008.66 1007.80 1006.99 1006.28 1005.69 1005.25 1004.95 1004.78 1004.72 1004.75 1004.85 1005.00 1005.18 1005.36 1005.53 1005.68
1019.60 1019.45 1019.30 1019.13 1018.90 1018.59 1018.19 1017.71 1017.17 1016.59 1016.02 1015.47 1014.98 1014.53 1014.12 1013.72 1013.30 1012.82 1012.25 1011.58 1010.80 1009.93 1009.01 1008.09 1007.20 1006.40 1005.71 1005.17 1004.79 1004.56 1004.45 1004.46 1004.55 1004.69 1004.86 1005.03 1005.18 1005.31
1019.83 1019.69 1019.56 1019.38 1019.15 1018.82 1018.41 1017.90 1017.33 1016.72 1016.12 1015.56 1015.05 1014.61 1014.23 1013.86 1013.49 1013.06 1012.55 1011.93 1011.18 1010.33 1009.40 1008.45 1007.50 1006.63 1005.86 1005.24 1004.77 1004.46 1004.30 1004.25 1004.30 1004.40 1004.54 1004.68 1004.81 1004.92
1020.05 1019.94 1019.81 1019.64 1019.40 1019.07 1018.63 1018.11 1017.51 1016.88 1016.26 1015.67 1015.15 1014.71 1014.33 1013.98 1013.64 1013.26 1012.80 1012.22 1011.52 1010.70 1009.79 1008.83 1007.87 1006.95 1006.13 1005.44 1004.90 1004.52 1004.28 1004.17 1004.16 1004.21 1004.30 1004.40 1004.49 1004.58
1020.25 1020.15 1020.03 1019.86 1019.62 1019.28 1018.84 1018.31 1017.71 1017.07 1016.43 1015.82 1015.29 1014.83 1014.44 1014.10 1013.78 1013.42 1012.99 1012.47 1011.81 1011.04 1010.17 1009.24 1008.29 1007.37 1006.52 1005.79 1005.21 1004.77 1004.47 1004.29 1004.21 1004.20 1004.23 1004.29 1004.35 1004.41
1020.42 1020.32 1020.20 1020.02 1019.78 1019.45 1019.02 1018.49 1017.90 1017.26 1016.62 1016.01 1015.47 1014.99 1014.59 1014.24 1013.92 1013.57 1013.17 1012.68 1012.08 1011.37 1010.56 1009.69 1008.79 1007.91 1007.08 1006.36 1005.75 1005.28 1004.94 1004.71 1004.57 1004.50 1004.48 1004.49 1004.52 1004.56
1020.55 1020.44 1020.30 1020.12 1019.88 1019.56 1019.15 1018.65 1018.08 1017.47 1016.86 1016.26 1015.71 1015.23 1014.81 1014.45 1014.11 1013.77 1013.38 1012.93 1012.39 1011.75 1011.03 1010.24 1009.43 1008.63 1007.87 1007.19 1006.61 1006.14 1005.78 1005.52 1005.35 1005.23 1005.17 1005.14 1005.13 1005.14
1020.64 1020.50 1020.35 1020.16 1019.93 1019.62 1019.24 1018.79 1018.28 1017.72 1017.14 1016.57 1016.04 1015.56 1015.13 1014.75 1014.40 1014.05 1013.68 1013.27 1012.79 1012.23 1011.62 1010.95 1010.26 1009.58 1008.93 1008.33 1007.82 1007.40 1007.06 1006.79 1006.60 1006.46 1006.36 1006.30 1006.25 1006.24
1020.69 1020.53 1020.36 1020.16 1019.94 1019.66 1019.33 1018.94 1018.49 1017.99 1017.48 1016.96 1016.46 1015.99 1015.57 1015.18 1014.82 1014.47 1014.11 1013.74 1013.33 1012.87 1012.38 1011.85 1011.31 1010.78 1010.27 1009.80 1009.39 1009.04 1008.75 1008.51 1008.33 1008.18 1008.06 1007.96 1007.89 1007.83
1020.72 1020.54 1020.35 1020.16 1019.95 1019.71 1019.43 1019.10 1018.73 1018.32 1017.88 1017.42 1016.96 1016.52 1016.10 1015.71 1015.35 1015.01 1014.68 1014.35 1014.02 1013.67 1013.31 1012.94 1012.56 1012.19 1011.84 1011.52 1011.24 1010.98 1010.76 1010.58 1010.42 1010.27 1010.15 1010.03 1009.93 1009.83
1020.73 1020.54 1020.36 1020.18 1019.99 1019.79 1019.57 1019.31 1019.02 1018.69 1018.32 1017.93 1017.52 1017.11 1016.71 1016.33 1015.98 1015.65 1015.35 1015.08 1014.82 1014.58 1014.35 1014.13 1013.92 1013.72 1013.54 1013.36 1013.20 1013.06 1012.92 1012.79 1012.66 1012.53 1012.41 1012.28 1012.15 1012.02
1020.73 1020.56 1020.39 1020.23 1020.08 1019.92 1019.76 1019.57 1019.35 1019.09 1018.79 1018.45 1018.09 1017.71 1017.33 1016.97 1016.63 1016.33 1016.06 1015.84 1015.66 1015.52 1015.41 1015.34 1015.28 1015.23 1015.19 1015.15 1015.11 1015.06 1014.99 1014.91 1014.82 1014.72 1014.60 1014.47 1014.33 1014.18
1020.74 1020.60 1020.46 1020.33 1020.21 1020.10 1019.98 1019.85 1019.69 1019.48 1019.24 1018.95 1018.63 1018.28 1017.92 1017.58 1017.25 1016.97 1016.74 1016.56 1016.45 1016.40 1016.40 1016.43 1016.50 1016.57 1016.65 1016.72 1016.76 1016.79 1016.78 1016.74 1016.68 1016.60 1016.49 1016.37 1016.23 1016.07
1020.73 1020.63 1020.54 1020.45 1020.38 1020.31 1020.23 1020.14 1020.02 1019.86 1019.65 1019.40 1019.10 1018.78 1018.43 1018.10 1017.79 1017.53 1017.33 1017.20 1017.14 1017.15 1017.22 1017.34 1017.48 1017.64 1017.80 1017.93 1018.04 1018.10 1018.13 1018.12 1018.08 1018.01 1017.92 1017.82 1017.69 1017.55
1020.70 1020.66 1020.61 1020.58 1020.54 1020.51 1020.47 1020.41 1020.32 1020.19 1020.00 1019.77 1019.49 1019.18 1018.85 1018.53 1018.24 1017.99 1017.81 1017.70 1017.68 1017.73 1017.84 1018.00 1018.20 1018.40 1018.59 1018.76 1018.88 1018.97 1019.01 1019.01 1018.98 1018.93 1018.86 1018.78 1018.68 1018.58
Thickness
5662 5660 5659 5659 5658 5658 5658 5657 5655 5654 5656 5657 5655 5654 5652 5651 5649 5649 5650 5648 5647 5646 5646 5646 5646 5646 5647 5646 5647 5647 5648 5648 5649 5649 5649 5649 5649 5649
5655 5655 5654 5654 5653 5653 5652 5652 5652 5650 5650 5653 5651 5650 5648 5647 5645 5646 5646 5643 5643 5642 5641 5641 5641 5642 5641 5641 5642 5642 5642 5643 5643 5644 5644 5643 5643 5643
5650 5649 5648 5648 5647 5647 5647 5647 5646 5646 5645 5647 5647 5646 5644 5643 5641 5641 5642 5641 5640 5638 5637 5637 5636 5636 5636 5636 5636 5636 5637 5637 5638 5638 5638 5638 5638 5638
5644 5643 5643 5642 5641 5641 5641 5641 5641 5641 5640 5640 5642 5640 5639 5639 5637 5637 5637 5637 5636 5634 5632 5632 5631 5631 5631 5631 5631 5631 5631 5632 5632 5632 5632 5632 5632 5633
5637 5637 5636 5636 5635 5635 5635 5635 5635 5635 5634 5634 5636 5634 5634 5632 5631 5631 5632 5631 5631 5630 5628 5627 5626 5626 5626 5625 5625 5626 5626 5626 5627 5627 5627 5627 5627 5627
5631 5630 5629 5629 5629 5629 5628 5629 5628 5628 5628 5628 5628 5628 5627 5626 5625 5625 5625 5626 5625 5626 5624 5623 5622 5621 5621 5620 5620 5620 5620 5620 5621 5621 5621 5621 5621 5621
5624 5623 5622 5621 5620 5620 5621 5621 5620 5621 5621 5621 5621 5622 5622 5620 5620 5620 5619 5619 5620 5620 5620 5620 5619 5618 5617 5616 5616 5615 5615 5615 5615 5615 5615 5615 5615 5615
5616 5616 5615 5613 5611 5610 5611 5611 5611 5612 5614 5614 5615 5616 5617 5617 5615 5613 5613 5613 5613 5615 5614 5614 5614 5614 5614 5614 5611 5610 5609 5609 5609 5609 5609 5609 5609 5609
5609 5608 5608 5607 5605 5605 5605 5603 5604 5603 5604 5608 5609 5611 5611 5611 5609 5608 5608 5608 5609 5610 5607 5608 5609 5609 5609 5607 5605 5604 5604 5604 5603 5603 5603 5603 5603 5603
5601 5601 5601 5601 5599 5598 5600 5600 5601 5601 5599 5600 5603 5605 5604 5603 5602 5602 5602 5602 5603 5603 5601 5602 5604 5603 5603 5602 5599 5598 5597 5597 5597 5597 5596 5596 5596 5597
5595 5594 5593 5593 5592 5589 5591 5593 5594 5594 5592 5592 5593 5594 5594 5594 5593 5593 5594 5595 5596 5597 5595 5596 5597 5596 5597 5596 5594 5592 5591 5591 5590 5590 5590 5590 5590 5590
5588 5587 5584 5584 5583 5581 5583 5585 5586 5587 5586 5586 5586 5586 5587 5587 5586 5587 5588 5589 5591 5591 5590 5589 5590 5589 5590 5591 5589 5587 5585 5584 5583 5583 5583 5583 5583 5584
5580 5580 5579 5575 5574 5573 5573 5576 5577 5577 5578 5580 5580 5581 5582 5582 5581 5581 5582 5583 5584 5585 5584 5583 5584 5583 5584 5584 5584 5583 5581 5579 5578 5577 5577 5577 5577 5577
5571 5571 5570 5566 5565 5564 5564 5566 5565 5566 5569 5571 5573 5574 5575 5575 5576 5575 5575 5576 5576 5578 5577 5575 5576 5576 5577 5576 5576 5576 5575 5574 5573 5572 5571 5570 5570 5569
5561 5560 5558 5556 5556 5556 5556 5555 5556 5558 5560 5562 5564 5565 5566 5567 5567 5567 5567 5567 5568 5568 5568 5568 5568 5569 5569 5570 5570 5568 5567 5567 5566 5565 5565 5564 5564 5563
5550 5549 5547 5547 5546 5546 5547 5547 5548 5550 5552 5553 5555 5556 5556 5557 5558 5558 5558 5558 5558 5559 5559 5558 5559 5560 5560 5561 5561 5560 5560 5560 5559 5558 5557 5557 5556 5556
5539 5539 5540 5539 5539 5539 5539 5540 5540 5542 5543 5544 5545 5546 5547 5547 5548 5549 5549 5550 5550 5550 5550 5549 5549 5550 5550 5552 5552 5553 5552 5552 5552 5550 5549 5549 5548 5548
5528 5531 5531 5532 5532 5532 5532 5531 5532 5534 5534 5535 5536 5537 5537 5538 5539 5539 5541 5542 5542 5542 5541 5541 5540 5540 5541 5542 5540 5543 5543 5543 5542 5542 5542 5542 5541 5541
5521 5523 5524 5524 5524 5524 5523 5523 5524 5524 5525 5526 5527 5528 5528 5529 5529 5530 5532 5533 5534 5534 5533 5532 5532 5533 5534 5535 5533 5529 5532 5533 5532 5533 5534 5534 5534 5534
5514 5516 5516 5516 5516 5516 5515 5515 5515 5515 5516 5517 5518 5518 5519 5520 5521 5522 5523 5524 5525 5525 5524 5523 5523 5524 5525 5526 5525 5521 5520 5523 5524 5524 5525 5525 5525 5524
5507 5507 5508 5508 5508 5507 5507 5507 5507 5508 5508 5509 5510 5510 5511 5512 5513 5513 5514 5513 5515 5517 5517 5516 5515 5513 5514 5514 5514 5514 5511 5511 5513 5515 5516 5517 5518 5518
5499 5499 5500 5500 5499 5498 5498 5498 5499 5500 5501 5501 5502 5502 5503 5504 5505 5505 5505 5506 5507 5508 5508 5507 5505 5504 5505 5506 5507 5506 5504 5502 5502 5503 5504 5507 5510 5512
5491 5490 5491 5491 5491 5491 5490 5490 5491 5493 5494 5494 5494 5495 5495 5495 5496 5496 5496 5498 5499 5498 5498 5499 5498 5498 5498 5498 5498 5497 5496 5496 5496 5496 5496 5497 5499 5500